• In Uzbekistan
  • List of Countries
  • For 7 days
  • Water Temperature
  • Satellite Maps
  • Weather Map
  • Weather Widgets
  • user-avatar
    Login

    Hourly Weather Lokiec

    Today, 13 November, Tuesday

    Time Temperature Precipitation Wind Pressure Humidity
    00:00 +6°C° 0 mm 2 mps 711 mmHg 81%
    01:00 +6°C° 0 mm 2 mps 711 mmHg 82%
    02:00 +6°C° 0 mm 1 mps 711 mmHg 89%
    03:00 +6°C° 0 mm 1 mps 711 mmHg 88%
    04:00 +5°C° 0 mm 2 mps 711 mmHg 88%
    05:00 +5°C° 0 mm 2 mps 711 mmHg 88%
    06:00 +5°C° 0 mm 2 mps 711 mmHg 87%
    07:00 +5°C° 0 mm 2 mps 711 mmHg 87%
    08:00 +5°C° 0 mm 2 mps 711 mmHg 86%
    09:00 +7°C° 0 mm 2 mps 711 mmHg 78%
    10:00 +8°C° 0 mm 3 mps 711 mmHg 69%
    11:00 +10°C° 0 mm 3 mps 711 mmHg 61%
    12:00 +11°C° 0 mm 3 mps 711 mmHg 60%
    13:00 +11°C° 0 mm 3 mps 711 mmHg 58%
    14:00 +12°C° 0 mm 3 mps 711 mmHg 56%
    15:00 +10°C° 0 mm 3 mps 710 mmHg 61%
    16:00 +9°C° 0 mm 2 mps 710 mmHg 66%
    17:00 +8°C° 0 mm 2 mps 710 mmHg 71%
    18:00 +8°C° 0 mm 2 mps 709 mmHg 70%
    19:00 +7°C° 0 mm 2 mps 709 mmHg 70%
    20:00 +7°C° 0 mm 2 mps 709 mmHg 70%
    21:00 +7°C° 0 mm 2 mps 710 mmHg 69%
    22:00 +8°C° 0 mm 2 mps 710 mmHg 69%
    23:00 +8°C° 0 mm 2 mps 710 mmHg 68%

    Tomorrow, 14 November, Wednesday

    Time Temperature Precipitation Wind Pressure Humidity
    00:00 +8°C° 0.1 mm 2 mps 710 mmHg 71%
    01:00 +7°C° 0.1 mm 2 mps 710 mmHg 74%
    02:00 +7°C° 0.1 mm 2 mps 710 mmHg 77%
    03:00 +7°C° 0.2 mm 2 mps 710 mmHg 80%
    04:00 +7°C° 0.2 mm 2 mps 710 mmHg 82%
    05:00 +7°C° 0.2 mm 2 mps 710 mmHg 85%
    06:00 +6°C° 0 mm 2 mps 710 mmHg 87%
    07:00 +5°C° 0 mm 3 mps 710 mmHg 88%
    08:00 +4°C° 0 mm 3 mps 710 mmHg 90%
    09:00 +5°C° 0 mm 3 mps 710 mmHg 86%
    10:00 +5°C° 0 mm 3 mps 710 mmHg 83%
    11:00 +5°C° 0 mm 3 mps 711 mmHg 79%
    12:00 +5°C° 0.1 mm 3 mps 711 mmHg 78%
    13:00 +5°C° 0.1 mm 3 mps 710 mmHg 78%
    14:00 +5°C° 0.1 mm 3 mps 710 mmHg 78%
    15:00 +5°C° 0.1 mm 3 mps 710 mmHg 79%
    16:00 +4°C° 0.1 mm 3 mps 710 mmHg 80%
    17:00 +4°C° 0.1 mm 3 mps 710 mmHg 81%
    18:00 +4°C° 0.1 mm 3 mps 711 mmHg 83%
    19:00 +4°C° 0.1 mm 3 mps 711 mmHg 85%
    20:00 +4°C° 0.1 mm 3 mps 711 mmHg 86%
    21:00 +3°C° 0.2 mm 3 mps 711 mmHg 87%
    22:00 +3°C° 0.2 mm 3 mps 711 mmHg 87%
    23:00 +3°C° 0.2 mm 3 mps 711 mmHg 88%

    Day after tomorrow, 15 November, Thursday

    Time Temperature Precipitation Wind Pressure Humidity
    00:00 +3°C° 0.1 mm 3 mps 711 mmHg 89%
    01:00 +3°C° 0.1 mm 3 mps 711 mmHg 89%
    02:00 +3°C° 0.1 mm 3 mps 711 mmHg 90%
    03:00 +3°C° 0.1 mm 3 mps 711 mmHg 90%
    04:00 +3°C° 0.1 mm 3 mps 711 mmHg 90%
    05:00 +3°C° 0.1 mm 3 mps 711 mmHg 90%
    06:00 +3°C° 0.2 mm 3 mps 711 mmHg 90%
    07:00 +3°C° 0.2 mm 3 mps 711 mmHg 90%
    08:00 +3°C° 0.2 mm 3 mps 711 mmHg 90%
    09:00 +4°C° 0.2 mm 3 mps 712 mmHg 88%
    10:00 +4°C° 0.2 mm 3 mps 712 mmHg 86%
    11:00 +4°C° 0.2 mm 3 mps 712 mmHg 83%
    12:00 +4°C° 0.3 mm 4 mps 712 mmHg 82%
    13:00 +4°C° 0.3 mm 4 mps 712 mmHg 80%
    14:00 +4°C° 0.3 mm 4 mps 712 mmHg 79%
    15:00 +4°C° 0.1 mm 3 mps 712 mmHg 80%
    16:00 +3°C° 0.1 mm 3 mps 712 mmHg 82%
    17:00 +3°C° 0.1 mm 3 mps 712 mmHg 83%
    18:00 +3°C° 0.1 mm 3 mps 712 mmHg 84%
    19:00 +2°C° 0.1 mm 3 mps 713 mmHg 86%
    20:00 +2°C° 0.1 mm 3 mps 713 mmHg 87%
    21:00 +2°C° 0 mm 3 mps 713 mmHg 88%
    22:00 +2°C° 0 mm 2 mps 713 mmHg 88%
    23:00 +2°C° 0 mm 2 mps 714 mmHg 88%

    16 November, Friday

    Time Temperature Precipitation Wind Pressure Humidity
    00:00 +2°C° 0 mm 2 mps 714 mmHg 88%
    01:00 +2°C° 0 mm 2 mps 714 mmHg 89%
    02:00 +1°C° 0 mm 2 mps 714 mmHg 89%
    03:00 +1°C° 0 mm 2 mps 714 mmHg 89%
    04:00 +1°C° 0 mm 2 mps 714 mmHg 90%
    05:00 +1°C° 0 mm 2 mps 714 mmHg 90%
    06:00 +1°C° 0 mm 2 mps 714 mmHg 89%
    07:00 +1°C° 0 mm 2 mps 715 mmHg 89%
    08:00 +1°C° 0 mm 2 mps 715 mmHg 89%
    09:00 +2°C° 0 mm 2 mps 715 mmHg 85%
    10:00 +2°C° 0 mm 3 mps 716 mmHg 81%
    11:00 +3°C° 0 mm 3 mps 716 mmHg 77%
    12:00 +3°C° 0 mm 3 mps 716 mmHg 74%
    13:00 +3°C° 0 mm 3 mps 716 mmHg 71%
    14:00 +4°C° 0 mm 3 mps 716 mmHg 68%
    15:00 +3°C° 0 mm 3 mps 716 mmHg 73%
    16:00 +2°C° 0 mm 3 mps 716 mmHg 77%
    17:00 +2°C° 0 mm 2 mps 716 mmHg 82%
    18:00 +1°C° 0 mm 2 mps 716 mmHg 84%
    19:00 +1°C° 0 mm 2 mps 716 mmHg 86%
    20:00 -1°C° 0 mm 2 mps 716 mmHg 88%
    21:00 -1°C° 0 mm 2 mps 716 mmHg 88%
    22:00 -2°C° 0 mm 2 mps 716 mmHg 88%
    23:00 -2°C° 0 mm 2 mps 717 mmHg 88%

    17 November, Saturday

    Time Temperature Precipitation Wind Pressure Humidity
    00:00 -2°C° 0 mm 2 mps 717 mmHg 87%
    01:00 -3°C° 0 mm 2 mps 717 mmHg 87%
    02:00 -3°C° 0 mm 2 mps 717 mmHg 86%
    03:00 -3°C° 0 mm 2 mps 717 mmHg 85%
    04:00 -1°C° 0 mm 1 mps 717 mmHg 84%
    05:00 -1°C° 0 mm 1 mps 717 mmHg 82%
    06:00 -3°C° 0 mm 2 mps 717 mmHg 81%
    07:00 -4°C° 0 mm 2 mps 717 mmHg 79%
    08:00 -4°C° 0 mm 2 mps 717 mmHg 78%
    09:00 -2°C° 0 mm 2 mps 717 mmHg 68%
    10:00 -1°C° 0 mm 2 mps 717 mmHg 58%
    11:00 +2°C° 0 mm 2 mps 717 mmHg 49%
    12:00 +2°C° 0 mm 2 mps 717 mmHg 45%
    13:00 +3°C° 0 mm 2 mps 717 mmHg 42%
    14:00 +3°C° 0 mm 2 mps 716 mmHg 39%
    15:00 +2°C° 0 mm 2 mps 716 mmHg 45%
    16:00 +1°C° 0 mm 2 mps 716 mmHg 51%
    17:00 -2°C° 0 mm 2 mps 716 mmHg 57%
    18:00 -2°C° 0 mm 2 mps 716 mmHg 58%
    19:00 -3°C° 0 mm 2 mps 716 mmHg 59%
    20:00 -3°C° 0 mm 2 mps 716 mmHg 61%
    21:00 -4°C° 0 mm 2 mps 715 mmHg 60%
    22:00 -4°C° 0 mm 2 mps 715 mmHg 59%
    23:00 -2°C° 0 mm 1 mps 715 mmHg 57%

    18 November, Sunday

    Time Temperature Precipitation Wind Pressure Humidity
    00:00 -2°C° 0 mm 1 mps 715 mmHg 57%
    01:00 -2°C° 0 mm 1 mps 715 mmHg 56%
    02:00 -2°C° 0 mm 1 mps 715 mmHg 56%
    03:00 -2°C° 0 mm 1 mps 714 mmHg 55%
    04:00 -2°C° 0 mm 1 mps 714 mmHg 54%
    05:00 -2°C° 0 mm 1 mps 713 mmHg 54%
    06:00 -2°C° 0 mm 1 mps 713 mmHg 54%
    07:00 -2°C° 0 mm 1 mps 713 mmHg 54%
    08:00 -2°C° 0 mm 1 mps 713 mmHg 54%
    09:00 -1°C° 0 mm 1 mps 712 mmHg 48%
    10:00 +1°C° 0 mm 1 mps 712 mmHg 42%
    11:00 +3°C° 0 mm 1 mps 712 mmHg 36%
    12:00 +3°C° 0 mm 1 mps 712 mmHg 35%
    13:00 +4°C° 0 mm 1 mps 711 mmHg 34%
    14:00 +5°C° 0 mm 1 mps 710 mmHg 32%
    15:00 +3°C° 0 mm 1 mps 710 mmHg 39%
    16:00 +2°C° 0 mm 1 mps 709 mmHg 45%
    17:00 -1°C° 0 mm 2 mps 709 mmHg 52%
    18:00 -1°C° 0 mm 2 mps 709 mmHg 58%
    19:00 -2°C° 0 mm 2 mps 708 mmHg 64%
    20:00 -2°C° 0 mm 2 mps 708 mmHg 70%
    21:00 -2°C° 0.1 mm 2 mps 708 mmHg 75%
    22:00 -2°C° 0.1 mm 3 mps 708 mmHg 81%
    23:00 -2°C° 0.1 mm 3 mps 707 mmHg 87%
    Show more